Flag for Germany Weather past 2 weeks in Forchheim, Bavaria, Germany

Now
58 °F

Light rain. Overcast.


Feels Like: 58 °F
Forecast: 50 / 67 °F
Wind: 6 mph from Southwest

Location: Bamberg

Current Time: Apr 25, 2015 at 8:55:30 PM

Latest Report: Apr 25, 2015 at 8:00 PM


Visibility: 17 mi

Pressure: 29.84 "Hg

Humidity: 70%

Dew point: 49 °F

Location of ForchheimLocation

Historic Weather in Forchheim — Graph

°F

Forchheim temperature yesterday

Maximum temperature yesterday: 67 °F (at 6:00 PM)
Minimum temperature yesterday: 31 °F (at 6:00 AM)
Average temperature yesterday: 49 °F

Past Weeks' High & Low Weather Summary

 TemperatureHumidityPressure
High76 °F (Apr 15, 6:00 PM)98% (Apr 11, 5:00 AM)30.49 "Hg (Apr 11, 5:00 AM)
Low26 °F (Apr 19, 6:00 AM)21% (Apr 21, 6:00 PM)29.80 "Hg (Apr 25, 5:00 PM)
Average50 °F62%30.18 "Hg
* Reported Apr 10 7:00 PM — Apr 25 7:00 PM, Forchheim, Weather by CustomWeather, © 2015

Note: Actual official high and low records may vary slightly from our data, if they occured in-between our weather recording intervals... More about our weather records

Advertising

Forchheim weather history for previous 24 hours

 ConditionsComfort  
Time TempWeatherWind HumidityBarometerVisibility
7:00 PM
Sat, Apr 25
61 °FLight rain. Overcast.5 mph66%29.83 "Hg25 mi
6:00 PM62 °FOvercast.6 mph65%29.83 "Hg25 mi
5:00 PM64 °FOvercast.5 mph53%29.80 "Hg34 mi
4:00 PM65 °FOvercast.5 mph47%29.81 "Hg34 mi
3:00 PM65 °FOvercast.5 mph48%29.83 "Hg31 mi
2:00 PM64 °FOvercast.3 mph44%29.83 "Hg22 mi
1:00 PM61 °FOvercast.3 mph49%29.86 "Hg12 mi
12:00 PM60 °FOvercast.5 mph44%29.86 "Hg12 mi
11:00 AM58 °FOvercast.3 mph48%29.86 "Hg13 mi
10:00 AM54 °FOvercast.2 mph56%29.87 "Hg14 mi
9:00 AM47 °FOvercast.1 mph69%29.89 "Hg11 mi
8:00 AM40 °FOvercast.1 mph85%29.90 "Hg9 mi
7:00 AM36 °FOvercast.1 mph88%29.91 "Hg11 mi
6:00 AM35 °FOvercast.1 mph86%29.91 "Hg13 mi
5:00 AM35 °FOvercast.1 mph88%29.92 "Hg12 mi
4:00 AM35 °FOvercast.No wind85%29.93 "Hg16 mi
3:00 AM36 °FPassing clouds.No wind85%29.93 "Hg18 mi
1:00 AM38 °FPassing clouds.1 mph80%29.95 "Hg25 mi
12:00 AM42 °FOvercast.1 mph73%29.94 "Hg28 mi
11:00 PM
Fri, Apr 24
42 °FOvercast.1 mph75%29.94 "Hg28 mi
10:00 PM46 °FPassing clouds.1 mph66%29.93 "Hg40 mi
9:00 PM51 °FPassing clouds.1 mph56%29.91 "Hg40 mi
8:00 PM62 °FSunny.1 mph32%29.89 "Hg28 mi
Weather by CustomWeather, © 2015

See weather overviewHow to use our weather pages